Regional Weather Roundup
Issued by NWS

Home | Current Version | Previous Version | Text Only | Print | Product List | Glossary On
Versions: 1 2 3 4 5 6 7 8 9 10 11 12 13 14 15 16 17 18 19 20 21 22 23 24 25 26 27 28 29 30 31 32 33 34 35 36 37 38 39 40 41 42 43 44 45 46 47 48 49 50
138
ASUS45 KBOU 211810
RWRCO

WEATHER ROUNDUP FOR COLORADO
NATIONAL WEATHER SERVICE DENVER/BOULDER CO
1200 PM MDT WED AUG 21 2019

NOTE: "FAIR" INDICATES FEW OR NO CLOUDS BELOW 12000 FEET WITH NO
SIGNIFICANT WEATHER AND/OR OBSTRUCTIONS TO VISIBILITY.

COZ001>005-013-030-031-211900-
...NORTHWEST COLORADO...

CITY           SKY/WX    TMP DP  RH WIND       PRES   REMARKS
CRAIG          FAIR      85  34  16 VRB5      30.21F
HAYDEN         FAIR      80  32  17 N3        30.26F
MEEKER         FAIR      82  28  14 VRB3      30.22F
RANGELY        FAIR      87  30  13 E8        30.14F
RABBIT EARS PA FAIR      66  28  24 MISG      30.57S
STEAMBOAT SPGS FAIR      78  33  19 SW3       30.26F
WALDEN         NOT AVBL
$$

COZ006>008-011-211900-
...WEST CENTRAL VALLEYS...

CITY           SKY/WX    TMP DP  RH WIND       PRES   REMARKS
GRAND JUNCTION FAIR      88  35  15 SE9       30.10F
MONTROSE       FAIR      86  41  20 NW3       30.19F
EAGLE          FAIR      79  31  17 CALM      30.27F
RIFLE          FAIR      85  39  19 VRB5      30.16F
DELTA          FAIR      87  36  16 CALM      30.14F HAZE
NUCLA          FAIR      86  36  16 CALM      30.23F
$$

COZ017>023-064>068-211900-
...SOUTHWEST COLORADO...

CITY           SKY/WX    TMP DP  RH WIND       PRES   REMARKS
DURANGO        FAIR      81  44  27 S13G24    30.27F
CORTEZ         FAIR      87  46  24 W7        30.20F
PAGOSA SPRINGS FAIR      80  41  25 S7        30.35F
TELLURIDE      FAIR      73  28  19 NW9       30.47S
WOLF CREEK PAS FAIR      55  34  44 N6        30.74S
$$

COZ009-010-012-014-032>034-037-058>063-211900-
...CENTRAL COLORADO...

CITY           SKY/WX    TMP DP  RH WIND       PRES   REMARKS
ASPEN          FAIR      81  30  15 N5        30.33F
BUENA VISTA    FAIR      81  31  16 SE9G16    30.34F
COPPER MTN     PTSUNNY   63  27  25 NW7G18    30.69S
BERTHOUD PASS  PTSUNNY   54  39  58 N3        30.73F
COTTONWOOD PAS NOT AVBL
GUNNISON       FAIR      74  41  30 VRB5      30.35F
GRANBY         FAIR      74  37  26 CALM      30.37F
KREMMLING      FAIR      77  43  29 W3        30.32F
LEADVILLE      FAIR      71  21  15 N14G21    30.50F
MONARCH PASS   FAIR      63  27  25 MISG      30.79F
SALIDA         FAIR      83  35  17 SE3       30.38F
SUNLIGHT       FAIR      64  21  19 CALM      30.62S
WILKERSON PASS FAIR      64  23  20 W3        30.66S
$$

COZ069>075-211900-
...SAN LUIS VALLEY/SANGRE DE CRISTO MOUNTAINS...

CITY           SKY/WX    TMP DP  RH WIND       PRES   REMARKS
ALAMOSA        FAIR      78  40  25 VRB6      30.35F
DEL NORTE      FAIR      73  42  33 SE5       30.38F
LA VETA PASS   NOT AVBL
SAGUACHE       FAIR      77  43  29 CALM      30.37F
$$

COZ035-036-038>040-211900-
...NORTHERN COLORADO FRONT RANGE...

CITY           SKY/WX    TMP DP  RH WIND       PRES   REMARKS
DENVER INTL AP FAIR      78  56  46 E8        30.23F
AURORA         PTSUNNY   78  58  49 CALM      30.24F
FRONT RANGE AP MOSUNNY   77  55  47 SE6       30.25F
ERIE MUNI ARPT   N/A     75  57  53 NE6       30.27F
BOULDER MUN AP FAIR      79  55  44 E3        30.22F
CENTENNIAL     FAIR      79  58  48 NE5       30.25F
BROOMFIELD     MOSUNNY   77  55  47 VRB6      30.26F
FORT COLLINS   PTSUNNY   78  59  51 E9        30.23F
LONGMONT       FAIR      81  58  45 E6        30.23F
$$

COZ041-046-047-076>085-087-088-211900-
...PIKES PEAK/PALMER DIVIDE AND SOUTHERN FOOTHILLS...

CITY           SKY/WX    TMP DP  RH WIND       PRES   REMARKS
COLO. SPRINGS  FAIR      79  55  43 SE7       30.27F
A. F. ACADEMY  MOSUNNY   80  49  33 SW12      30.27F
SCHRIEVER AFB  NOT AVBL
CHEYENNE MTN   FAIR      76  51  41 SE12      30.27F
ELLICOTT       FAIR      75  54  47 E9        30.29F
FALCON         FAIR      77  51  39 E8G17     30.33F
FORT CARSON      N/A    N/A N/A N/A MISG        N/A
LIMON          FAIR      76  55  48 SE5       30.23F
MONUMENT HILL  NOT AVBL
CANON CITY     NOT AVBL
WALSENBURG     NOT AVBL
TRINIDAD       FAIR      71  54  54 E8        30.26S
$$

COZ042>045-048>051-090-091-211900-
...NORTHEAST COLORADO...

CITY           SKY/WX    TMP DP  RH WIND       PRES   REMARKS
GREELEY ARPT     N/A     77  58  51 VRB5      30.22F
AKRON            N/A     78  56  46 CALM      30.20F
BURLINGTON     FAIR      79  61  53 E10G18    30.15S
WRAY           CLOUDY    79  59  50 N5        30.15F
YUMA           FAIR      77  32  19 E7        30.18F
STERLING       FAIR      81  59  47 NE9G16    30.17S
HOLYOKE        FAIR      79  61  53 NE9       30.16F
FORT MORGAN    FAIR      78  53  41 NE6       30.22F
$$

COZ086-089-092>099-211900-
...SOUTHEAST COLORADO...

CITY           SKY/WX    TMP DP  RH WIND       PRES   REMARKS
PUEBLO         FAIR      82  57  42 E14       30.17F
LA JUNTA       FAIR      81  58  45 NE14      30.15F
LAMAR          FAIR      80  62  54 NE7       30.09F
SPRINGFIELD    NOT AVBL
$$




USA.gov is the U.S. government's official web portal to all federal, state and local government web resources and services.